This is the latest recevied weather packets stored in our database for station/object VK5FR. If no packets are shown the sender has not sent any weather packets the latest 10 day(s).
| Time | Temp. | Humidity | Pressure | Rain* | Wind** | Luminosity | Snow |
|---|---|---|---|---|---|---|---|
| 1777705187 | 16.67° C | 86% | 1007.3 hPa | 0 mm | - | - | - |
| 1777704885 | 16.67° C | 85% | 1007.5 hPa | 0 mm | - | - | - |
| 1777704583 | 16.67° C | 84% | 1007.7 hPa | 0 mm | - | - | - |
| 1777704281 | 16.11° C | 84% | 1007.3 hPa | 0 mm | - | - | - |
| 1777703977 | 16.11° C | 84% | 1007.3 hPa | 0 mm | - | - | - |
| 1777703675 | 15.56° C | 85% | 1007 hPa | 0 mm | - | - | - |
| 1777703373 | 15.56° C | 87% | 1006.8 hPa | 0 mm | - | - | - |
| 1777703069 | 15.56° C | 88% | 1006.9 hPa | 0 mm | - | - | - |
| 1777702769 | 15° C | 89% | 1007.1 hPa | 0 mm | - | - | - |
| 1777702466 | 15° C | 90% | 1006.9 hPa | 0 mm | - | - | - |
| 1777702161 | 15° C | 90% | 1006.8 hPa | 0 mm | - | - | - |
| 1777701857 | 15° C | 91% | 1006.8 hPa | 0 mm | - | - | - |
| 1777701554 | 15.56° C | 91% | 1007.1 hPa | 1.27 mm | - | - | - |
| 1777701252 | 16.11° C | 91% | 1007.1 hPa | 4.32 mm | - | - | - |
| 1777700952 | 15° C | 91% | 1007.1 hPa | 4.83 mm | - | - | - |
| 1777700649 | 15.56° C | 90% | 1007.1 hPa | 1.78 mm | - | - | - |
| 1777700346 | 15.56° C | 90% | 1007.3 hPa | 3.05 mm | - | - | - |
| 1777700043 | 15.56° C | 90% | 1007.3 hPa | 6.1 mm | - | - | - |
| 1777699741 | 15.56° C | 90% | 1007.2 hPa | 3.56 mm | - | - | - |
| 1777699439 | 15.56° C | 89% | 1007 hPa | 3.05 mm | - | - | - |
| 1777699136 | 15.56° C | 89% | 1007.1 hPa | 3.05 mm | - | - | - |
| 1777698835 | 15.56° C | 89% | 1007.1 hPa | 1.78 mm | - | - | - |
| 1777698531 | 15.56° C | 89% | 1006.9 hPa | 0 mm | - | - | - |
| 1777698227 | 15.56° C | 90% | 1006.9 hPa | 0 mm | - | - | - |
| 1777697924 | 15° C | 90% | 1007 hPa | 0 mm | - | - | - |
* Rain latest hour (hover to see other rain measurements)
** Current wind speed in m/s (hover to see current wind gust speed)